THOR ABLESTAR DEB, 260

Orbit data source: Space-Track

THOR ABLESTAR DEB, 260 is space debris in LEO originally from a launch on Thu, 29 Jun 1961 UTC launched from the Air Force Eastern Test Range (AFETR). Debris objects in space refer to the collection of defunct objects orbiting the Earth. Examples of debris include non-operational satellites, rocket bodies, and fragments generated from explosions, collisions, or faulty payload assembly.

Loading next visibility...
THOR ABLESTAR DEB details
Identifier
260, 1961-015CG
Orbit
LEO
Last TLE update17 hours ago
Origin
Flag of USUSAF SSD (US)
ManufacturerUnknown
MissionSpacecraft
Bus & MotorUnknown
MassUnknown
Launch date (UTC)
1961-06-29 (64 years ago)
Launch vehicleUnknown
Launch site
Air Force Eastern Test Range (AFETR)
Object type
Payload
Rocket body
Debris
Shape & HBRUnknown
Radar Cross SectionSmall (<0.1 m²)

Expand to show TLE details & history

TLE from 17 hours ago
0 THOR ABLESTAR DEB
1 00260U 61015CG  25013.73628133  .00003629  00000-0  11331-2 0  9996
2 00260  66.7685 144.9944 0042923 156.4937 203.8142 14.41335906281397
Epoch: 2025-01-13T17:40Z
Definitive object data (Epoch: 2025-01-13T17:40:14.706Z)
Latitude-0.00006°
Longitude126.48005°
Altitude784.243 km
Speed7.447 km/s
True Right ascension09h 39m 58s
True Declination0° 00' 00"
Sunlit
Object was in full shadow at TLE epoch
Visualization TLE readout
Latitude-9.08382°
Longitude120.72789°
Altitude787.481 km
Speed7.444 km/s
Apparent Right ascension06h 47m 17s
Apparent Declination-57° 47' 26"
Sunlit
Object is in full shadow
Visualization observer readout
Local Sidereal Time10:52:46
Azimuth209.924° SW
Elevation-20.306°
Doppler factor1
Orbital elements
Apogee altitude783.053 km
Perigee altitude721.84 km
Semi-major axis7,130.583 km
Eccentricity0.0042923
Inclination66.7685°
RAAN144.9944°
Arg. of periapsis156.4937°
True anomaly203.61657°
Mean anomaly203.8142°
Eccentric anomaly203.71529°
Mean motion3.60459 °/min
BSTAR0.0011331
Orbital period99.87 mins
Loading maneuver chart data...

THOR ABLESTAR DEB Visibility forecast

Observer location: undefined°, undefined

Span
Click to sort rows by Start time (UTC) header in descending order
Start Az.
Max El. time (UTC)
Max El. Az.
Max El.
End time (UTC)
End Az.
9 mins2025-01-14 10:27:42.627Z216.432° SW2025-01-14 10:31:42.627Z264.89° W43.036°2025-01-14 10:36:42.627Z24.417° NE
8 mins2025-01-14 19:12:42.627Z336.774° NNW2025-01-14 19:16:42.627Z89.866° E43.382°2025-01-14 19:20:42.627Z144.211° SSE
8 mins2025-01-15 09:46:42.627Z193.349° SSW2025-01-15 09:50:42.627Z87.436° E41.834°2025-01-15 09:54:42.627Z35.907° NE
|